Weather History for KCNI - October, 2012

Change the Weather History Date:

Sunday, October 14, 2012

  Actual Average (KGVL) Record (KGVL)
Temperature  
Mean Temperature 64 °F 62 °F  
Max Temperature 73 °F 72 °F 88 °F (1954)
Min Temperature 55 °F 52 °F 33 °F (1988)
Degree Days  
Heating Degree Days 1 4  
Month to date heating degree days 41  
Since 1 July heating degree days 54  
Cooling Degree Days 0 1  
Month to date cooling degree days 27  
Year to date cooling degree days 1568  
Growing Degree Days 14 (Base 50)    
Moisture  
Dew Point 50 °F    
Average Humidity 60    
Maximum Humidity 83    
Minimum Humidity 47    
Precipitation  
Precipitation 0.00 in 0.12 in 2.49 in (2014)
Month to date precipitation 2.11  
Year to date precipitation 43.04  
Sea Level Pressure  
Sea Level Pressure 30.17 in    
Wind  
Wind Speed 5 mph ()    
Max Wind Speed 8 mph    
Max Gust Speed -    
Visibility 10.0 miles    
Events      
T = Trace of Precipitation, MM = Missing Value Source: Averaged Metar Reports

Daily Weather History Graph

Daily Weather History Graph

Search for Another Location

Airport or City:

Trip Planner

Search our weather history database for the weather conditions in past years. The results will help you decide how hot, cold, wet, or windy it might be!

Date:

Astronomy

Oct. 14, 2012 Rise Set
Actual Time 7:42 AM EDT 7:03 PM EDT
Civil Twilight 7:17 AM EDT 7:29 PM EDT
Nautical Twilight 6:48 AM EDT 7:58 PM EDT
Astronomical Twilight 6:19 AM EDT 8:27 PM EDT
Moon 6:41 AM EDT (10/14) 6:23 PM EDT (10/14)
Length of Visible Light 12h 11m
Length of Day
11h 21m
Waning Crescent, 1% of the Moon is Illuminated
Oct 14
Waning Crescent
Oct 15
New
Oct 21
First Quarter
Oct 29
Full
Nov 6
Last Quarter

Hourly Weather History & Observations

Time (EDT) Temp. Dew Point Humidity Pressure Visibility Wind Dir Wind Speed Gust Speed Precip Events Conditions
2:15 AM 55.4 °F 42.8 °F 63% - 10.0 mi East 8.1 mph - N/A   Mostly Cloudy
2:35 AM 57.2 °F 41.0 °F 55% 30.28 in - East 8.1 mph - N/A   Overcast
3:15 AM 57.2 °F 42.8 °F 59% 30.27 in - East 6.9 mph - N/A   Unknown
3:55 AM 59.0 °F 42.8 °F 55% 30.26 in - ENE 5.8 mph - N/A   Overcast
5:15 AM 59.0 °F 44.6 °F 59% 30.24 in 10.0 mi East 5.8 mph - N/A   Overcast
5:35 AM 59.0 °F 44.6 °F 59% 30.24 in 10.0 mi East 4.6 mph - N/A   Overcast
5:55 AM 59.0 °F 44.6 °F 59% 30.24 in 10.0 mi East 5.8 mph - N/A   Overcast
6:15 AM 59.0 °F 44.6 °F 59% 30.23 in 10.0 mi East 5.8 mph - N/A   Overcast
6:35 AM 59.0 °F 44.6 °F 59% 30.24 in 10.0 mi East 5.8 mph - N/A   Overcast
6:55 AM 59.0 °F 44.6 °F 59% 30.23 in 10.0 mi East 5.8 mph - N/A   Overcast
7:15 AM 59.0 °F 44.6 °F 59% 30.25 in 10.0 mi East 5.8 mph - N/A   Overcast
7:35 AM 59.0 °F 44.6 °F 59% 30.24 in 10.0 mi East 4.6 mph - N/A   Overcast
7:55 AM 59.0 °F 44.6 °F 59% 30.24 in 10.0 mi East 6.9 mph - N/A   Overcast
8:15 AM 59.0 °F 44.6 °F 59% 30.24 in 10.0 mi East 4.6 mph - N/A   Overcast
8:35 AM 59.0 °F 44.6 °F 59% 30.24 in 10.0 mi East 4.6 mph - N/A   Overcast
8:55 AM 59.0 °F 44.6 °F 59% 30.24 in 10.0 mi East 4.6 mph - N/A   Overcast
9:15 AM 59.0 °F 44.6 °F 59% 30.24 in 10.0 mi East 4.6 mph - N/A   Overcast
9:35 AM 60.8 °F 44.6 °F 55% 30.25 in 10.0 mi East 6.9 mph - N/A   Overcast
9:55 AM 60.8 °F 46.4 °F 59% 30.25 in 10.0 mi East 5.8 mph - N/A   Overcast
10:15 AM 60.8 °F 46.4 °F 59% 30.26 in 10.0 mi ENE 3.5 mph - N/A   Overcast
10:35 AM 60.8 °F 46.4 °F 59% 30.26 in 10.0 mi ESE 4.6 mph - N/A   Overcast
10:55 AM 62.6 °F 46.4 °F 55% 30.26 in 10.0 mi East 4.6 mph - N/A   Overcast
11:15 AM 62.6 °F 46.4 °F 55% 30.27 in 10.0 mi ENE 4.6 mph - N/A   Overcast
11:35 AM 62.6 °F 48.2 °F 59% 30.27 in 10.0 mi East 4.6 mph - N/A   Overcast
11:55 AM 66.2 °F 46.4 °F 49% 30.26 in 10.0 mi East 4.6 mph - N/A   Overcast
12:15 PM 64.4 °F 48.2 °F 56% 30.26 in 10.0 mi Calm Calm - N/A   Overcast
12:35 PM 64.4 °F 50.0 °F 59% 30.25 in 10.0 mi Calm Calm - N/A   Overcast
12:55 PM 66.2 °F 50.0 °F 56% 30.24 in 10.0 mi Calm Calm - N/A   Overcast
1:15 PM 68.0 °F 50.0 °F 52% 30.22 in 10.0 mi ESE 4.6 mph - N/A   Overcast
1:35 PM 68.0 °F 51.8 °F 56% 30.21 in 10.0 mi South 3.5 mph - N/A   Overcast
1:55 PM 69.8 °F 51.8 °F 53% 30.20 in 10.0 mi ESE 4.6 mph - N/A   Mostly Cloudy
2:15 PM 69.8 °F 51.8 °F 53% 30.19 in 10.0 mi SSW 4.6 mph - N/A   Overcast
2:35 PM 69.8 °F 51.8 °F 53% 30.17 in 10.0 mi South 5.8 mph - N/A   Overcast
2:55 PM 71.6 °F 51.8 °F 50% 30.16 in 10.0 mi South 6.9 mph - N/A   Scattered Clouds
3:15 PM 71.6 °F 51.8 °F 50% 30.15 in 10.0 mi South 6.9 mph - N/A   Scattered Clouds
3:35 PM 71.6 °F 51.8 °F 50% 30.14 in 10.0 mi SSE 6.9 mph - N/A   Scattered Clouds
4:15 PM 73.4 °F 51.8 °F 47% 30.12 in 10.0 mi SE 6.9 mph - N/A   Mostly Cloudy
4:35 PM 73.4 °F 53.6 °F 50% 30.11 in 10.0 mi South 8.1 mph - N/A   Scattered Clouds
4:55 PM 73.4 °F 51.8 °F 47% 30.10 in 10.0 mi SSW 8.1 mph - N/A   Scattered Clouds
5:15 PM 73.4 °F 53.6 °F 50% 30.10 in 10.0 mi South 6.9 mph - N/A   Mostly Cloudy
5:35 PM 73.4 °F 53.6 °F 50% 30.09 in 10.0 mi South 4.6 mph - N/A   Mostly Cloudy
5:55 PM 71.6 °F 53.6 °F 53% 30.08 in 10.0 mi SE 3.5 mph - N/A   Scattered Clouds
6:15 PM 71.6 °F 53.6 °F 53% 30.08 in 10.0 mi SE 3.5 mph - N/A   Clear
6:35 PM 71.6 °F 55.4 °F 57% 30.07 in 10.0 mi ESE 4.6 mph - N/A   Clear
6:55 PM 69.8 °F 55.4 °F 60% 30.06 in 10.0 mi ESE 5.8 mph - N/A   Clear
7:15 PM 69.8 °F 55.4 °F 60% 30.05 in 10.0 mi East 4.6 mph - N/A   Clear
7:35 PM 68.0 °F 55.4 °F 64% 30.05 in 10.0 mi East 4.6 mph - N/A   Clear
7:55 PM 68.0 °F 55.4 °F 64% 30.06 in 10.0 mi Calm Calm - N/A   Clear
8:15 PM 68.0 °F 57.2 °F 68% 30.06 in 10.0 mi Calm Calm - N/A   Scattered Clouds
8:35 PM 68.0 °F 57.2 °F 68% 30.06 in 10.0 mi Calm Calm - N/A   Scattered Clouds
8:55 PM 68.0 °F 57.2 °F 68% 30.06 in 10.0 mi Calm Calm - N/A   Clear
9:15 PM 68.0 °F 57.2 °F 68% 30.06 in 10.0 mi Calm Calm - N/A   Clear
9:35 PM 66.2 °F 57.2 °F 73% 30.06 in 10.0 mi Calm Calm - N/A   Clear
9:55 PM 64.4 °F 59.0 °F 83% 30.06 in 10.0 mi ENE 3.5 mph - N/A   Mostly Cloudy
10:15 PM 66.2 °F 59.0 °F 78% 30.06 in 10.0 mi East 3.5 mph - N/A   Overcast
10:35 PM 66.2 °F 59.0 °F 78% 30.06 in 10.0 mi East 3.5 mph - N/A   Overcast
10:55 PM 64.4 °F 59.0 °F 83% 30.06 in 10.0 mi Calm Calm - N/A   Overcast
11:15 PM 64.4 °F 59.0 °F 83% 30.05 in 10.0 mi East 4.6 mph - N/A   Scattered Clouds
11:35 PM 64.4 °F 59.0 °F 83% 30.04 in 10.0 mi East 4.6 mph - N/A   Clear
11:55 PM 64.4 °F 59.0 °F 83% 30.04 in 10.0 mi Calm Calm - N/A   Clear